Year,Month,Day,Hour,Minute,Value (Times are PST for temperature in C)
2012,04,21,00,00,6.80
2012,04,21,00,01,6.80
2012,04,21,00,02,6.70
2012,04,21,00,03,6.70
2012,04,21,00,04,6.70
2012,04,21,00,05,6.70
2012,04,21,00,06,6.70
2012,04,21,00,07,6.70
2012,04,21,00,08,6.60
2012,04,21,00,09,6.60
2012,04,21,00,10,6.60
2012,04,21,00,11,6.60
2012,04,21,00,12,6.50
2012,04,21,00,13,6.50
2012,04,21,00,14,6.50
2012,04,21,00,15,6.50
2012,04,21,00,16,6.50
2012,04,21,00,17,6.50
2012,04,21,00,18,6.40
2012,04,21,00,19,6.40
2012,04,21,00,20,6.40
2012,04,21,00,21,6.30
2012,04,21,00,22,6.30
2012,04,21,00,23,6.30
2012,04,21,00,24,6.30
2012,04,21,00,25,6.30
2012,04,21,00,26,6.30
2012,04,21,00,27,6.30
2012,04,21,00,28,6.30
2012,04,21,00,29,6.30
2012,04,21,00,30,6.30
2012,04,21,00,31,6.30
2012,04,21,00,32,6.30
2012,04,21,00,33,6.30
2012,04,21,00,34,6.30
2012,04,21,00,35,6.20
2012,04,21,00,36,6.20
2012,04,21,00,37,6.20
2012,04,21,00,38,6.20
2012,04,21,00,39,6.20
2012,04,21,00,40,6.20
2012,04,21,00,41,6.20
2012,04,21,00,42,6.20
2012,04,21,00,43,6.20
2012,04,21,00,44,6.20
2012,04,21,00,45,6.20
2012,04,21,00,46,6.20
2012,04,21,00,47,6.20
2012,04,21,00,48,6.20
2012,04,21,00,49,6.20
2012,04,21,00,50,6.20
2012,04,21,00,51,6.20
2012,04,21,00,52,6.20
2012,04,21,00,53,6.20
2012,04,21,00,54,6.20
2012,04,21,00,55,6.10
2012,04,21,00,56,6.10
2012,04,21,00,57,6.10
2012,04,21,00,58,6.10
2012,04,21,00,59,6.10
2012,04,21,01,00,6.10
2012,04,21,01,01,6.10
2012,04,21,01,02,6.10
2012,04,21,01,03,6.10
2012,04,21,01,04,6.10
2012,04,21,01,05,6.10
2012,04,21,01,06,6.10
2012,04,21,01,07,6.20
2012,04,21,01,08,6.20
2012,04,21,01,09,6.20
2012,04,21,01,10,6.20
2012,04,21,01,11,6.10
2012,04,21,01,12,6.10
2012,04,21,01,13,6.00
2012,04,21,01,14,6.00
2012,04,21,01,15,6.00
2012,04,21,01,16,6.00
2012,04,21,01,17,6.00
2012,04,21,01,18,6.00
2012,04,21,01,19,6.00
2012,04,21,01,20,6.00
2012,04,21,01,21,6.00
2012,04,21,01,22,6.00
2012,04,21,01,23,6.00
2012,04,21,01,24,6.00
2012,04,21,01,25,5.90
2012,04,21,01,26,5.90
2012,04,21,01,27,5.90
2012,04,21,01,28,5.90
2012,04,21,01,29,5.80
2012,04,21,01,30,5.80
2012,04,21,01,31,5.80
2012,04,21,01,32,5.80
2012,04,21,01,33,5.80
2012,04,21,01,34,5.80
2012,04,21,01,35,5.80
2012,04,21,01,36,5.80
2012,04,21,01,37,5.80
2012,04,21,01,38,5.70
2012,04,21,01,39,5.70
2012,04,21,01,40,5.70
2012,04,21,01,41,5.60
2012,04,21,01,42,5.60
2012,04,21,01,43,5.60
2012,04,21,01,44,5.50
2012,04,21,01,45,5.50
2012,04,21,01,46,5.40
2012,04,21,01,47,5.40
2012,04,21,01,48,5.40
2012,04,21,01,49,5.30
2012,04,21,01,50,5.30
2012,04,21,01,51,5.30
2012,04,21,01,52,5.30
2012,04,21,01,53,5.30
2012,04,21,01,54,5.30
2012,04,21,01,55,5.20
2012,04,21,01,56,5.20
2012,04,21,01,57,5.20
2012,04,21,01,58,5.20
2012,04,21,01,59,5.20
2012,04,21,02,00,5.20
2012,04,21,02,01,5.20
2012,04,21,02,02,5.20
2012,04,21,02,03,5.20
2012,04,21,02,04,5.20
2012,04,21,02,05,5.20
2012,04,21,02,06,5.10
2012,04,21,02,07,5.10
2012,04,21,02,08,5.10
2012,04,21,02,09,5.10
2012,04,21,02,10,5.10
2012,04,21,02,11,5.10
2012,04,21,02,12,5.10
2012,04,21,02,13,5.00
2012,04,21,02,14,5.00
2012,04,21,02,15,4.90
2012,04,21,02,16,4.90
2012,04,21,02,17,4.90
2012,04,21,02,18,4.90
2012,04,21,02,19,4.90
2012,04,21,02,20,4.90
2012,04,21,02,21,4.90
2012,04,21,02,22,4.90
2012,04,21,02,23,4.90
2012,04,21,02,24,4.80
2012,04,21,02,25,4.90
2012,04,21,02,26,4.90
2012,04,21,02,27,4.90
2012,04,21,02,28,4.90
2012,04,21,02,29,4.90
2012,04,21,02,30,4.90
2012,04,21,02,31,4.90
2012,04,21,02,32,4.90
2012,04,21,02,33,4.90
2012,04,21,02,34,4.90
2012,04,21,02,35,4.80
2012,04,21,02,36,4.80
2012,04,21,02,37,4.80
2012,04,21,02,38,4.80
2012,04,21,02,39,4.80
2012,04,21,02,40,4.80
2012,04,21,02,41,4.70
2012,04,21,02,42,4.70
2012,04,21,02,43,4.70
2012,04,21,02,44,4.70
2012,04,21,02,45,4.70
2012,04,21,02,46,4.60
2012,04,21,02,47,4.60
2012,04,21,02,48,4.60
2012,04,21,02,49,4.60
2012,04,21,02,50,4.60
2012,04,21,02,51,4.60
2012,04,21,02,52,4.60
2012,04,21,02,53,4.60
2012,04,21,02,54,4.60
2012,04,21,02,55,4.50
2012,04,21,02,56,4.50
2012,04,21,02,57,4.50
2012,04,21,02,58,4.50
2012,04,21,02,59,4.50
2012,04,21,03,00,4.50
2012,04,21,03,01,4.50
2012,04,21,03,02,4.50
2012,04,21,03,03,4.60
2012,04,21,03,04,4.60
2012,04,21,03,05,4.60
2012,04,21,03,06,4.60
2012,04,21,03,07,4.50
2012,04,21,03,08,4.50
2012,04,21,03,09,4.50
2012,04,21,03,10,4.50
2012,04,21,03,11,4.50
2012,04,21,03,12,4.50
2012,04,21,03,13,4.50
2012,04,21,03,14,4.40
2012,04,21,03,15,4.50
2012,04,21,03,16,4.50
2012,04,21,03,17,4.40
2012,04,21,03,18,4.40
2012,04,21,03,19,4.40
2012,04,21,03,20,4.40
2012,04,21,03,21,4.40
2012,04,21,03,22,4.40
2012,04,21,03,23,4.40
2012,04,21,03,24,4.40
2012,04,21,03,25,4.40
2012,04,21,03,26,4.40
2012,04,21,03,27,4.40
2012,04,21,03,28,4.30
2012,04,21,03,29,4.30
2012,04,21,03,30,4.30
2012,04,21,03,31,4.30
2012,04,21,03,32,4.30
2012,04,21,03,33,4.30
2012,04,21,03,34,4.30
2012,04,21,03,35,4.30
2012,04,21,03,36,4.30
2012,04,21,03,37,4.30
2012,04,21,03,38,4.30
2012,04,21,03,39,4.20
2012,04,21,03,40,4.20
2012,04,21,03,41,4.20
2012,04,21,03,42,4.20
2012,04,21,03,43,4.20
2012,04,21,03,44,4.10
2012,04,21,03,45,4.10
2012,04,21,03,46,4.10
2012,04,21,03,47,4.10
2012,04,21,03,48,4.10
2012,04,21,03,49,4.10
2012,04,21,03,50,4.10
2012,04,21,03,51,4.10
2012,04,21,03,52,4.10
2012,04,21,03,53,4.10
2012,04,21,03,54,4.10
2012,04,21,03,55,4.10
2012,04,21,03,56,4.10
2012,04,21,03,57,4.10
2012,04,21,03,58,4.10
2012,04,21,03,59,4.10
2012,04,21,04,00,4.10
2012,04,21,04,01,4.10
2012,04,21,04,02,4.00
2012,04,21,04,03,4.00
2012,04,21,04,04,4.00
2012,04,21,04,05,3.90
2012,04,21,04,06,3.90
2012,04,21,04,07,3.90
2012,04,21,04,08,3.90
2012,04,21,04,09,3.90
2012,04,21,04,10,3.90
2012,04,21,04,11,3.90
2012,04,21,04,12,3.80
2012,04,21,04,13,3.80
2012,04,21,04,14,3.80
2012,04,21,04,15,3.80
2012,04,21,04,16,3.80
2012,04,21,04,17,3.80
2012,04,21,04,18,3.80
2012,04,21,04,19,3.80
2012,04,21,04,20,3.80
2012,04,21,04,21,3.80
2012,04,21,04,22,3.80
2012,04,21,04,23,3.80
2012,04,21,04,24,3.80
2012,04,21,04,25,3.80
2012,04,21,04,26,3.80
2012,04,21,04,27,3.80
2012,04,21,04,28,3.80
2012,04,21,04,29,3.80
2012,04,21,04,30,3.90
2012,04,21,04,31,3.90
2012,04,21,04,32,3.90
2012,04,21,04,33,3.90
2012,04,21,04,34,3.90
2012,04,21,04,35,3.90
2012,04,21,04,36,3.90
2012,04,21,04,37,3.90
2012,04,21,04,38,3.90
2012,04,21,04,39,3.90
2012,04,21,04,40,3.90
2012,04,21,04,41,3.90
2012,04,21,04,42,3.90
2012,04,21,04,43,3.90
2012,04,21,04,44,3.90
2012,04,21,04,45,3.90
2012,04,21,04,46,3.90
2012,04,21,04,47,3.90
2012,04,21,04,48,3.90
2012,04,21,04,49,3.90
2012,04,21,04,50,3.90
2012,04,21,04,51,3.90
2012,04,21,04,52,4.00
2012,04,21,04,53,4.00
2012,04,21,04,54,4.00
2012,04,21,04,55,4.00
2012,04,21,04,56,4.00
2012,04,21,04,57,4.00
2012,04,21,04,58,4.10
2012,04,21,04,59,4.10
2012,04,21,05,00,4.10
2012,04,21,05,01,4.10
2012,04,21,05,02,4.10
2012,04,21,05,03,4.10
2012,04,21,05,04,4.10
2012,04,21,05,05,4.10
2012,04,21,05,06,4.10
2012,04,21,05,07,4.10
2012,04,21,05,08,4.10
2012,04,21,05,09,4.10
2012,04,21,05,10,4.10
2012,04,21,05,11,4.10
2012,04,21,05,12,4.10
2012,04,21,05,13,4.10
2012,04,21,05,14,4.10
2012,04,21,05,15,4.20
2012,04,21,05,16,4.20
2012,04,21,05,17,4.20
2012,04,21,05,18,4.20
2012,04,21,05,19,4.20
2012,04,21,05,20,4.30
2012,04,21,05,21,4.30
2012,04,21,05,22,4.30
2012,04,21,05,23,4.30
2012,04,21,05,24,4.30
2012,04,21,05,25,4.40
2012,04,21,05,26,4.40
2012,04,21,05,27,4.40
2012,04,21,05,28,4.30
2012,04,21,05,29,4.30
2012,04,21,05,30,4.30
2012,04,21,05,31,4.30
2012,04,21,05,32,4.30
2012,04,21,05,33,4.30
2012,04,21,05,34,4.30
2012,04,21,05,35,4.30
2012,04,21,05,36,4.30
2012,04,21,05,37,4.30
2012,04,21,05,38,4.30
2012,04,21,05,39,4.20
2012,04,21,05,40,4.20
2012,04,21,05,41,4.20
2012,04,21,05,42,4.20
2012,04,21,05,43,4.20
2012,04,21,05,44,4.20
2012,04,21,05,45,4.20
2012,04,21,05,46,4.20
2012,04,21,05,47,4.20
2012,04,21,05,48,4.20
2012,04,21,05,49,4.20
2012,04,21,05,50,4.20
2012,04,21,05,51,4.30
2012,04,21,05,52,4.30
2012,04,21,05,53,4.30
2012,04,21,05,54,4.30
2012,04,21,05,55,4.30
2012,04,21,05,56,4.30
2012,04,21,05,57,4.30
2012,04,21,05,58,4.40
2012,04,21,05,59,4.40
2012,04,21,06,00,4.40
2012,04,21,06,01,4.50
2012,04,21,06,02,4.50
2012,04,21,06,03,4.60
2012,04,21,06,04,4.70
2012,04,21,06,05,4.80
2012,04,21,06,06,4.80
2012,04,21,06,07,4.80
2012,04,21,06,08,4.80
2012,04,21,06,09,4.80
2012,04,21,06,10,4.80
2012,04,21,06,11,4.80
2012,04,21,06,12,4.90
2012,04,21,06,13,4.90
2012,04,21,06,14,4.90
2012,04,21,06,15,4.90
2012,04,21,06,16,5.00
2012,04,21,06,17,5.00
2012,04,21,06,18,5.10
2012,04,21,06,19,5.10
2012,04,21,06,20,5.20
2012,04,21,06,21,5.20
2012,04,21,06,22,5.30
2012,04,21,06,23,5.30
2012,04,21,06,24,5.40
2012,04,21,06,25,5.40
2012,04,21,06,26,5.40
2012,04,21,06,27,5.50
2012,04,21,06,28,5.50
2012,04,21,06,29,5.50
2012,04,21,06,30,5.60
2012,04,21,06,31,5.60
2012,04,21,06,32,5.60
2012,04,21,06,33,5.60
2012,04,21,06,34,5.60
2012,04,21,06,35,5.60
2012,04,21,06,36,5.60
2012,04,21,06,37,5.60
2012,04,21,06,38,5.60
2012,04,21,06,39,5.60
2012,04,21,06,40,5.60
2012,04,21,06,41,5.60
2012,04,21,06,42,5.60
2012,04,21,06,43,5.60
2012,04,21,06,44,5.50
2012,04,21,06,45,5.50
2012,04,21,06,46,5.50
2012,04,21,06,47,5.50
2012,04,21,06,48,5.60
2012,04,21,06,49,5.60
2012,04,21,06,50,5.60
2012,04,21,06,51,5.70
2012,04,21,06,52,5.70
2012,04,21,06,53,5.70
2012,04,21,06,54,5.70
2012,04,21,06,55,5.70
2012,04,21,06,56,5.70
2012,04,21,06,57,5.70
2012,04,21,06,58,5.80
2012,04,21,06,59,5.80
2012,04,21,07,00,5.80
2012,04,21,07,01,5.80
2012,04,21,07,02,5.80
2012,04,21,07,03,5.80
2012,04,21,07,04,5.90
2012,04,21,07,05,5.90
2012,04,21,07,06,5.90
2012,04,21,07,07,5.90
2012,04,21,07,08,6.00
2012,04,21,07,09,6.10
2012,04,21,07,10,6.10
2012,04,21,07,11,6.10
2012,04,21,07,12,6.20
2012,04,21,07,13,6.20
2012,04,21,07,14,6.20
2012,04,21,07,15,6.30
2012,04,21,07,16,6.30
2012,04,21,07,17,6.40
2012,04,21,07,18,6.40
2012,04,21,07,19,6.50
2012,04,21,07,20,6.60
2012,04,21,07,21,6.60
2012,04,21,07,22,6.60
2012,04,21,07,23,6.70
2012,04,21,07,24,6.70
2012,04,21,07,25,6.80
2012,04,21,07,26,6.80
2012,04,21,07,27,6.80
2012,04,21,07,28,6.90
2012,04,21,07,29,6.90
2012,04,21,07,30,6.90
2012,04,21,07,31,6.90
2012,04,21,07,32,7.00
2012,04,21,07,33,7.00
2012,04,21,07,34,7.00
2012,04,21,07,35,7.10
2012,04,21,07,36,7.10
2012,04,21,07,37,7.10
2012,04,21,07,38,7.20
2012,04,21,07,39,7.20
2012,04,21,07,40,7.20
2012,04,21,07,41,7.20
2012,04,21,07,42,7.20
2012,04,21,07,43,7.20
2012,04,21,07,44,7.20
2012,04,21,07,45,7.30
2012,04,21,07,46,7.30
2012,04,21,07,47,7.30
2012,04,21,07,48,7.40
2012,04,21,07,49,7.40
2012,04,21,07,50,7.40
2012,04,21,07,51,7.40
2012,04,21,07,52,7.50
2012,04,21,07,53,7.50
2012,04,21,07,54,7.60
2012,04,21,07,55,7.60
2012,04,21,07,56,7.60
2012,04,21,07,57,7.60
2012,04,21,07,58,7.70
2012,04,21,07,59,7.70
2012,04,21,08,00,7.70
2012,04,21,08,01,7.70
2012,04,21,08,02,7.70
2012,04,21,08,03,7.70
2012,04,21,08,04,7.70
2012,04,21,08,05,7.80
2012,04,21,08,06,7.80
2012,04,21,08,07,7.80
2012,04,21,08,08,7.80
2012,04,21,08,09,7.80
2012,04,21,08,10,7.90
2012,04,21,08,11,7.90
2012,04,21,08,12,7.90
2012,04,21,08,13,8.00
2012,04,21,08,14,8.00
2012,04,21,08,15,8.10
2012,04,21,08,16,8.10
2012,04,21,08,17,8.10
2012,04,21,08,18,8.20
2012,04,21,08,19,8.20
2012,04,21,08,20,8.20
2012,04,21,08,21,8.20
2012,04,21,08,22,8.20
2012,04,21,08,23,8.30
2012,04,21,08,24,8.30
2012,04,21,08,25,8.30
2012,04,21,08,26,8.30
2012,04,21,08,27,8.30
2012,04,21,08,28,8.30
2012,04,21,08,29,8.30
2012,04,21,08,30,8.30
2012,04,21,08,31,8.40
2012,04,21,08,32,8.40
2012,04,21,08,33,8.40
2012,04,21,08,34,8.40
2012,04,21,08,35,8.40
2012,04,21,08,36,8.50
2012,04,21,08,37,8.50
2012,04,21,08,38,8.50
2012,04,21,08,39,8.50
2012,04,21,08,40,8.50
2012,04,21,08,41,8.50
2012,04,21,08,42,8.50
2012,04,21,08,43,8.60
2012,04,21,08,44,8.60
2012,04,21,08,45,8.60
2012,04,21,08,46,8.70
2012,04,21,08,47,8.70
2012,04,21,08,48,8.80
2012,04,21,08,49,8.80
2012,04,21,08,50,8.80
2012,04,21,08,51,8.90
2012,04,21,08,52,8.90
2012,04,21,08,53,9.00
2012,04,21,08,54,9.10
2012,04,21,08,55,9.10
2012,04,21,08,56,9.20
2012,04,21,08,57,9.20
2012,04,21,08,58,9.30
2012,04,21,08,59,9.30
2012,04,21,09,00,9.30
2012,04,21,09,01,9.30
2012,04,21,09,02,9.30
2012,04,21,09,03,9.30
2012,04,21,09,04,9.30
2012,04,21,09,05,9.30
2012,04,21,09,06,9.30
2012,04,21,09,07,9.30
2012,04,21,09,08,9.30
2012,04,21,09,09,9.40
2012,04,21,09,10,9.40
2012,04,21,09,11,9.40
2012,04,21,09,12,9.40
2012,04,21,09,13,9.40
2012,04,21,09,14,9.40
2012,04,21,09,15,9.50
2012,04,21,09,16,9.50
2012,04,21,09,17,9.60
2012,04,21,09,18,9.60
2012,04,21,09,19,9.60
2012,04,21,09,20,9.60
2012,04,21,09,21,9.60
2012,04,21,09,22,9.70
2012,04,21,09,23,9.80
2012,04,21,09,24,9.80
2012,04,21,09,25,9.80
2012,04,21,09,26,9.80
2012,04,21,09,27,9.80
2012,04,21,09,28,9.80
2012,04,21,09,29,9.80
2012,04,21,09,30,9.80
2012,04,21,09,31,9.80
2012,04,21,09,32,9.90
2012,04,21,09,33,9.90
2012,04,21,09,34,9.90
2012,04,21,09,35,9.90
2012,04,21,09,36,9.90
2012,04,21,09,37,9.90
2012,04,21,09,38,9.90
2012,04,21,09,39,10.00
2012,04,21,09,40,10.00
2012,04,21,09,41,10.00
2012,04,21,09,42,10.00
2012,04,21,09,43,10.00
2012,04,21,09,44,10.00
2012,04,21,09,45,9.90
2012,04,21,09,46,9.90
2012,04,21,09,47,9.90
2012,04,21,09,48,9.90
2012,04,21,09,49,9.90
2012,04,21,09,50,9.90
2012,04,21,09,51,9.90
2012,04,21,09,52,9.90
2012,04,21,09,53,9.90
2012,04,21,09,54,10.00
2012,04,21,09,55,10.10
2012,04,21,09,56,10.10
2012,04,21,09,57,10.20
2012,04,21,09,58,10.20
2012,04,21,09,59,10.30
2012,04,21,10,00,10.30
2012,04,21,10,01,10.40
2012,04,21,10,02,10.30
2012,04,21,10,03,10.30
2012,04,21,10,04,10.30
2012,04,21,10,05,10.30
2012,04,21,10,06,10.30
2012,04,21,10,07,10.40
2012,04,21,10,08,10.40
2012,04,21,10,09,10.40
2012,04,21,10,10,10.40
2012,04,21,10,11,10.40
2012,04,21,10,12,10.40
2012,04,21,10,13,10.40
2012,04,21,10,14,10.40
2012,04,21,10,15,10.40
2012,04,21,10,16,10.50
2012,04,21,10,17,10.50
2012,04,21,10,18,10.60
2012,04,21,10,19,10.60
2012,04,21,10,20,10.70
2012,04,21,10,21,10.70
2012,04,21,10,22,10.80
2012,04,21,10,23,10.80
2012,04,21,10,24,10.80
2012,04,21,10,25,10.90
2012,04,21,10,26,10.90
2012,04,21,10,27,10.90
2012,04,21,10,28,11.00
2012,04,21,10,29,11.00
2012,04,21,10,30,11.10
2012,04,21,10,31,11.10
2012,04,21,10,32,11.10
2012,04,21,10,33,11.10
2012,04,21,10,34,11.10
2012,04,21,10,35,11.10
2012,04,21,10,36,11.10
2012,04,21,10,37,11.10
2012,04,21,10,38,11.10
2012,04,21,10,39,11.10
2012,04,21,10,40,11.20
2012,04,21,10,41,11.20
2012,04,21,10,42,11.20
2012,04,21,10,43,11.30
2012,04,21,10,44,11.30
2012,04,21,10,45,11.30
2012,04,21,10,46,11.30
2012,04,21,10,47,11.30
2012,04,21,10,48,11.30
2012,04,21,10,49,11.40
2012,04,21,10,50,11.50
2012,04,21,10,51,11.50
2012,04,21,10,52,11.60
2012,04,21,10,53,11.60
2012,04,21,10,54,11.60
2012,04,21,10,55,11.60
2012,04,21,10,56,11.60
2012,04,21,10,57,11.60
2012,04,21,10,58,11.60
2012,04,21,10,59,11.40
2012,04,21,11,00,11.40
2012,04,21,11,01,11.30
2012,04,21,11,02,11.30
2012,04,21,11,03,11.30
2012,04,21,11,04,11.30
2012,04,21,11,05,11.40
2012,04,21,11,06,11.40
2012,04,21,11,07,11.40
2012,04,21,11,08,11.40
2012,04,21,11,09,11.40
2012,04,21,11,10,11.40
2012,04,21,11,11,11.30
2012,04,21,11,12,11.20
2012,04,21,11,13,11.10
2012,04,21,11,14,11.10
2012,04,21,11,15,11.10
2012,04,21,11,16,11.10
2012,04,21,11,17,11.20
2012,04,21,11,18,11.20
2012,04,21,11,19,11.30
2012,04,21,11,20,11.30
2012,04,21,11,21,11.30
2012,04,21,11,22,11.30
2012,04,21,11,23,11.30
2012,04,21,11,24,11.30
2012,04,21,11,25,11.30
2012,04,21,11,26,11.40
2012,04,21,11,27,11.40
2012,04,21,11,28,11.40
2012,04,21,11,29,11.40
2012,04,21,11,30,11.40
2012,04,21,11,31,11.40
2012,04,21,11,32,11.40
2012,04,21,11,33,11.40
2012,04,21,11,34,11.40
2012,04,21,11,35,11.40
2012,04,21,11,36,11.40
2012,04,21,11,37,11.40
2012,04,21,11,38,11.50
2012,04,21,11,39,11.50
2012,04,21,11,40,11.50
2012,04,21,11,41,11.50
2012,04,21,11,42,11.50
2012,04,21,11,43,11.60
2012,04,21,11,44,11.50
2012,04,21,11,45,11.40
2012,04,21,11,46,11.30
2012,04,21,11,47,11.40
2012,04,21,11,48,11.50
2012,04,21,11,49,11.50
2012,04,21,11,50,11.60
2012,04,21,11,51,11.70
2012,04,21,11,52,11.70
2012,04,21,11,53,11.70
2012,04,21,11,54,11.70
2012,04,21,11,55,11.80
2012,04,21,11,56,11.90
2012,04,21,11,57,11.90
2012,04,21,11,58,12.00
2012,04,21,11,59,11.90
2012,04,21,12,00,11.80
2012,04,21,12,01,11.80
2012,04,21,12,02,11.70
2012,04,21,12,03,11.80
2012,04,21,12,04,11.80
2012,04,21,12,05,11.80
2012,04,21,12,06,11.90
2012,04,21,12,07,11.90
2012,04,21,12,08,11.90
2012,04,21,12,09,12.00
2012,04,21,12,10,12.00
2012,04,21,12,11,12.10
2012,04,21,12,12,12.00
2012,04,21,12,13,11.90
2012,04,21,12,14,11.80
2012,04,21,12,15,11.80
2012,04,21,12,16,11.70
2012,04,21,12,17,11.60
2012,04,21,12,18,11.60
2012,04,21,12,19,11.60
2012,04,21,12,20,11.70
2012,04,21,12,21,11.70
2012,04,21,12,22,11.60
2012,04,21,12,23,11.60
2012,04,21,12,24,11.60
2012,04,21,12,25,11.70
2012,04,21,12,26,11.70
2012,04,21,12,27,11.80
2012,04,21,12,28,11.80
2012,04,21,12,29,11.80
2012,04,21,12,30,11.80
2012,04,21,12,31,11.90
2012,04,21,12,32,11.90
2012,04,21,12,33,11.90
2012,04,21,12,34,12.00
2012,04,21,12,35,12.00
2012,04,21,12,36,12.00
2012,04,21,12,37,12.10
2012,04,21,12,38,12.20
2012,04,21,12,39,12.30
2012,04,21,12,40,12.40
2012,04,21,12,41,12.50
2012,04,21,12,42,12.50
2012,04,21,12,43,12.50
2012,04,21,12,44,12.30
2012,04,21,12,45,12.30
2012,04,21,12,46,12.20
2012,04,21,12,47,12.20
2012,04,21,12,48,12.20
2012,04,21,12,49,12.20
2012,04,21,12,50,12.20
2012,04,21,12,51,12.20
2012,04,21,12,52,12.20
2012,04,21,12,53,12.10
2012,04,21,12,54,12.10
2012,04,21,12,55,12.10
2012,04,21,12,56,12.00
2012,04,21,12,57,12.00
2012,04,21,12,58,12.10
2012,04,21,12,59,12.10
2012,04,21,13,00,12.20
2012,04,21,13,01,12.20
2012,04,21,13,02,12.30
2012,04,21,13,03,12.20
2012,04,21,13,04,12.20
2012,04,21,13,05,12.10
2012,04,21,13,06,12.10
2012,04,21,13,07,12.20
2012,04,21,13,08,12.20
2012,04,21,13,09,12.30
2012,04,21,13,10,12.40
2012,04,21,13,11,12.50
2012,04,21,13,12,12.60
2012,04,21,13,13,12.60
2012,04,21,13,14,12.60
2012,04,21,13,15,12.50
2012,04,21,13,16,12.50
2012,04,21,13,17,12.50
2012,04,21,13,18,12.40
2012,04,21,13,19,12.50
2012,04,21,13,20,12.50
2012,04,21,13,21,12.60
2012,04,21,13,22,12.50
2012,04,21,13,23,12.50
2012,04,21,13,24,12.60
2012,04,21,13,25,12.60
2012,04,21,13,26,12.70
2012,04,21,13,27,12.80
2012,04,21,13,28,12.80
2012,04,21,13,29,12.80
2012,04,21,13,30,12.80
2012,04,21,13,31,12.90
2012,04,21,13,32,13.00
2012,04,21,13,33,13.10
2012,04,21,13,34,13.20
2012,04,21,13,35,13.20
2012,04,21,13,36,13.30
2012,04,21,13,37,13.40
2012,04,21,13,38,13.50
2012,04,21,13,39,13.50
2012,04,21,13,40,13.60
2012,04,21,13,41,13.60
2012,04,21,13,42,13.60
2012,04,21,13,43,13.60
2012,04,21,13,44,13.60
2012,04,21,13,45,13.60
2012,04,21,13,46,13.50
2012,04,21,13,47,13.50
2012,04,21,13,48,13.50
2012,04,21,13,49,13.40
2012,04,21,13,50,13.40
2012,04,21,13,51,13.30
2012,04,21,13,52,13.30
2012,04,21,13,53,13.30
2012,04,21,13,54,13.30
2012,04,21,13,55,13.30
2012,04,21,13,56,13.40
2012,04,21,13,57,13.30
2012,04,21,13,58,13.30
2012,04,21,13,59,13.30
2012,04,21,14,00,13.30
2012,04,21,14,01,13.20
2012,04,21,14,02,13.20
2012,04,21,14,03,13.20
2012,04,21,14,04,13.20
2012,04,21,14,05,13.30
2012,04,21,14,06,13.30
2012,04,21,14,07,13.30
2012,04,21,14,08,13.30
2012,04,21,14,09,13.40
2012,04,21,14,10,13.50
2012,04,21,14,11,13.50
2012,04,21,14,12,13.60
2012,04,21,14,13,13.70
2012,04,21,14,14,13.70
2012,04,21,14,15,13.70
2012,04,21,14,16,13.80
2012,04,21,14,17,13.80
2012,04,21,14,18,13.90
2012,04,21,14,19,13.90
2012,04,21,14,20,13.90
2012,04,21,14,21,13.80
2012,04,21,14,22,13.80
2012,04,21,14,23,13.70
2012,04,21,14,24,13.60
2012,04,21,14,25,13.70
2012,04,21,14,26,13.80
2012,04,21,14,27,13.90
2012,04,21,14,28,13.90
2012,04,21,14,29,13.90
2012,04,21,14,30,13.90
2012,04,21,14,31,13.90
2012,04,21,14,32,13.90
2012,04,21,14,33,13.90
2012,04,21,14,34,14.00
2012,04,21,14,35,14.00
2012,04,21,14,36,14.10
2012,04,21,14,37,14.20
2012,04,21,14,38,14.30
2012,04,21,14,39,14.30
2012,04,21,14,40,14.30
2012,04,21,14,41,14.40
2012,04,21,14,42,14.40
2012,04,21,14,43,14.30
2012,04,21,14,44,14.20
2012,04,21,14,45,14.20
2012,04,21,14,46,14.30
2012,04,21,14,47,14.30
2012,04,21,14,48,14.30
2012,04,21,14,49,14.20
2012,04,21,14,50,14.20
2012,04,21,14,51,14.20
2012,04,21,14,52,14.30
2012,04,21,14,53,14.30
2012,04,21,14,54,14.40
2012,04,21,14,55,14.40
2012,04,21,14,56,14.50
2012,04,21,14,57,14.50
2012,04,21,14,58,14.60
2012,04,21,14,59,14.70
2012,04,21,15,00,14.70
2012,04,21,15,01,14.70
2012,04,21,15,02,14.80
2012,04,21,15,03,14.80
2012,04,21,15,04,14.90
2012,04,21,15,05,15.00
2012,04,21,15,06,15.00
2012,04,21,15,07,15.00
2012,04,21,15,08,14.80
2012,04,21,15,09,14.60
2012,04,21,15,10,14.50
2012,04,21,15,11,14.40
2012,04,21,15,12,14.40
2012,04,21,15,13,14.50
2012,04,21,15,14,14.50
2012,04,21,15,15,14.50
2012,04,21,15,16,14.40
2012,04,21,15,17,14.50
2012,04,21,15,18,14.50
2012,04,21,15,19,14.60
2012,04,21,15,20,14.60
2012,04,21,15,21,14.60
2012,04,21,15,22,14.60
2012,04,21,15,23,14.70
2012,04,21,15,24,14.70
2012,04,21,15,25,14.60
2012,04,21,15,26,14.60
2012,04,21,15,27,14.60
2012,04,21,15,28,14.60
2012,04,21,15,29,14.50
2012,04,21,15,30,14.40
2012,04,21,15,31,14.40
2012,04,21,15,32,14.40
2012,04,21,15,33,14.40
2012,04,21,15,34,14.40
2012,04,21,15,35,14.40
2012,04,21,15,36,14.40
2012,04,21,15,37,14.50
2012,04,21,15,38,14.60
2012,04,21,15,39,14.60
2012,04,21,15,40,14.70
2012,04,21,15,41,14.70
2012,04,21,15,42,14.60
2012,04,21,15,43,14.50
2012,04,21,15,44,14.40
2012,04,21,15,45,14.50
2012,04,21,15,46,14.50
2012,04,21,15,47,14.60
2012,04,21,15,48,14.60
2012,04,21,15,49,14.60
2012,04,21,15,50,14.60
2012,04,21,15,51,14.70
2012,04,21,15,52,14.80
2012,04,21,15,53,14.90
2012,04,21,15,54,15.00
2012,04,21,15,55,15.00
2012,04,21,15,56,15.00
2012,04,21,15,57,15.00
2012,04,21,15,58,15.00
2012,04,21,15,59,15.00
2012,04,21,16,00,15.00
2012,04,21,16,01,14.80
2012,04,21,16,02,14.70
2012,04,21,16,03,14.60
2012,04,21,16,04,14.60
2012,04,21,16,05,14.60
2012,04,21,16,06,14.70
2012,04,21,16,07,14.70
2012,04,21,16,08,14.70
2012,04,21,16,09,14.80
2012,04,21,16,10,14.70
2012,04,21,16,11,14.70
2012,04,21,16,12,14.70
2012,04,21,16,13,14.70
2012,04,21,16,14,14.60
2012,04,21,16,15,14.70
2012,04,21,16,16,14.70
2012,04,21,16,17,14.70
2012,04,21,16,18,14.70
2012,04,21,16,19,14.70
2012,04,21,16,20,14.80
2012,04,21,16,21,14.80
2012,04,21,16,22,14.90
2012,04,21,16,23,14.80
2012,04,21,16,24,14.80
2012,04,21,16,25,14.90
2012,04,21,16,26,15.00
2012,04,21,16,27,15.00
2012,04,21,16,28,15.00
2012,04,21,16,29,15.00
2012,04,21,16,30,15.00
2012,04,21,16,31,15.00
2012,04,21,16,32,14.90
2012,04,21,16,33,14.90
2012,04,21,16,34,15.00
2012,04,21,16,35,15.00
2012,04,21,16,36,15.00
2012,04,21,16,37,15.00
2012,04,21,16,38,15.00
2012,04,21,16,39,15.00
2012,04,21,16,40,15.00
2012,04,21,16,41,15.10
2012,04,21,16,42,15.10
2012,04,21,16,43,15.00
2012,04,21,16,44,15.00
2012,04,21,16,45,15.00
2012,04,21,16,46,15.00
2012,04,21,16,47,15.00
2012,04,21,16,48,15.00
2012,04,21,16,49,15.00
2012,04,21,16,50,14.90
2012,04,21,16,51,15.00
2012,04,21,16,52,15.00
2012,04,21,16,53,15.00
2012,04,21,16,54,15.00
2012,04,21,16,55,15.00
2012,04,21,16,56,15.00
2012,04,21,16,57,15.00
2012,04,21,16,58,15.00
2012,04,21,16,59,14.90
2012,04,21,17,00,14.80
2012,04,21,17,01,14.70
2012,04,21,17,02,14.70
2012,04,21,17,03,14.60
2012,04,21,17,04,14.60
2012,04,21,17,05,14.70
2012,04,21,17,06,14.80
2012,04,21,17,07,14.80
2012,04,21,17,08,14.80
2012,04,21,17,09,14.80
2012,04,21,17,10,14.70
2012,04,21,17,11,14.70
2012,04,21,17,12,14.70
2012,04,21,17,13,14.60
2012,04,21,17,14,14.60
2012,04,21,17,15,14.50
2012,04,21,17,16,14.40
2012,04,21,17,17,14.40
2012,04,21,17,18,14.40
2012,04,21,17,19,14.40
2012,04,21,17,20,14.40
2012,04,21,17,21,14.50
2012,04,21,17,22,14.50
2012,04,21,17,23,14.50
2012,04,21,17,24,14.40
2012,04,21,17,25,14.30
2012,04,21,17,26,14.30
2012,04,21,17,27,14.30
2012,04,21,17,28,14.20
2012,04,21,17,29,14.20
2012,04,21,17,30,14.20
2012,04,21,17,31,14.20
2012,04,21,17,32,14.20
2012,04,21,17,33,14.30
2012,04,21,17,34,14.30
2012,04,21,17,35,14.40
2012,04,21,17,36,14.40
2012,04,21,17,37,14.50
2012,04,21,17,38,14.50
2012,04,21,17,39,14.50
2012,04,21,17,40,14.50
2012,04,21,17,41,14.50
2012,04,21,17,42,14.50
2012,04,21,17,43,14.40
2012,04,21,17,44,14.40
2012,04,21,17,45,14.50